Flag for U.S.A. Weather past 2 weeks in Palestine, Texas, U.S.A.

Now
49 °F

Fog.


Feels Like: 46 °F
Forecast: 47 / 51 °F
Wind: 9 mph from North

Location: Palestine Municipal Airport

Current Time: Dec 19, 2014 at 2:47:51 AM

Latest Report: Dec 19, 2014 at 2:15 AM


Visibility: 4 mi

Pressure: 30.12 "Hg

Humidity: 95%

Dew point: 48 °F

Location of PalestineLocation

Historic Weather in Palestine — Graph

°F

Palestine temperature yesterday

Maximum temperature yesterday: 53 °F (at 3:15 PM)
Minimum temperature yesterday: 46 °F (at 4:55 AM)
Average temperature yesterday: 49 °F

Past Weeks' High & Low Weather Summary

 TemperatureHumidityPressure
High77 °F (Dec 5, 3:55 PM)100% (Dec 4, 4:55 AM)30.43 "Hg (Dec 4, 4:55 AM)
Low35 °F (Dec 17, 2:15 AM)31% (Dec 15, 1:35 PM)29.87 "Hg (Dec 14, 4:55 PM)
Average56 °F83%30.19 "Hg
* Reported Dec 4 1:15 AM — Dec 19 1:15 AM, Palestine, Weather by CustomWeather, © 2014

Note: Actual official high and low records may vary slightly from our data, if they occured in-between our weather recording intervals... More about our weather records

Advertising

Palestine weather history for previous 24 hours

 ConditionsComfort  
Time TempWeatherWind HumidityBarometerVisibility
1:15 AM
Dec 19
49 °FFog.8 mph96%30.13 "Hg4 mi
12:55 AM50 °FFog.9 mph96%30.12 "Hg3 mi
12:15 AM50 °FFog.10 mph94%30.13 "Hg4 mi
11:55 PM
Dec 18
50 °FFog.7 mph95%30.15 "Hg3 mi
11:15 PM50 °FFog.9 mph95%30.14 "Hg3 mi
10:55 PM50 °FFog.6 mph95%30.16 "Hg4 mi
10:15 PM51 °FFog.8 mph94%30.14 "Hg4 mi
9:35 PM51 °FFog.6 mph94%30.14 "Hg4 mi
9:15 PM51 °FFog.6 mph94%30.14 "Hg4 mi
8:55 PM51 °FFog.5 mph96%30.16 "Hg4 mi
8:15 PM51 °FFog.7 mph96%30.15 "Hg4 mi
7:55 PM51 °FFog.3 mph96%30.15 "Hg4 mi
7:35 PM51 °FFog.5 mph97%30.14 "Hg4 mi
7:15 PM51 °FFog.3 mph97%30.14 "Hg4 mi
6:55 PM51 °FFog.6 mph97%30.13 "Hg4 mi
6:35 PM51 °FFog.5 mph96%30.13 "Hg5 mi
6:15 PM51 °FFog.3 mph97%30.12 "Hg5 mi
5:55 PM51 °FFog.3 mph97%30.11 "Hg5 mi
5:35 PM51 °FFog.3 mph98%30.11 "Hg3 mi
5:15 PM52 °FFog.5 mph97%30.11 "Hg4 mi
4:55 PM52 °FFog.3 mph97%30.11 "Hg4 mi
4:35 PM52 °FFog.5 mph97%30.11 "Hg3 mi
4:15 PM52 °FFog.3 mph97%30.11 "Hg2 mi
3:55 PM52 °FFog.3 mph96%30.11 "Hg3 mi
3:15 PM53 °FFog.5 mph95%30.10 "Hg4 mi
2:55 PM52 °FFog.No wind96%30.11 "Hg3 mi
2:15 PM52 °FFog.6 mph96%30.10 "Hg3 mi
1:55 PM52 °FFog.3 mph95%30.11 "Hg4 mi
1:35 PM52 °FFog.3 mph95%30.12 "Hg4 mi
1:15 PM51 °FFog.3 mph96%30.12 "Hg3 mi
12:55 PM51 °FFog.No wind97%30.14 "Hg2 mi
11:50 AM50 °FFog.No wind97%30.15 "Hg3 mi
11:35 AM50 °FFog.3 mph97%30.15 "Hg4 mi
11:15 AM50 °FFog.3 mph97%30.17 "Hg4 mi
10:55 AM49 °FFog.5 mph97%30.17 "Hg3 mi
10:40 AM49 °FFog.No wind97%30.17 "Hg2 mi
10:15 AM49 °FFog.5 mph97%30.17 "Hg2 mi
9:55 AM48 °FFog.5 mph96%30.16 "Hg3 mi
9:15 AM48 °FFog.5 mph97%30.16 "Hg3 mi
8:55 AM47 °FFog.No wind97%30.16 "Hg2 mi
8:35 AM47 °FFog.6 mph97%30.15 "Hg3 mi
8:15 AM47 °FFog.7 mph97%30.14 "Hg4 mi
7:55 AM47 °FFog.5 mph97%30.15 "Hg4 mi
7:35 AM47 °FFog.6 mph97%30.14 "Hg4 mi
7:15 AM46 °FFog.6 mph97%30.15 "Hg4 mi
6:55 AM47 °FFog.5 mph97%30.15 "Hg5 mi
6:35 AM46 °FFog.5 mph98%30.14 "Hg4 mi
6:15 AM46 °FFog.5 mph99%30.12 "Hg4 mi
5:55 AM46 °FFog.5 mph98%30.12 "Hg4 mi
5:35 AM46 °FFog.5 mph100%30.12 "Hg2 mi
5:15 AM46 °FFog.6 mph100%30.11 "Hg2 mi
4:55 AM46 °FFog.6 mph99%30.11 "Hg3 mi
4:15 AM46 °FFog.5 mph97%30.12 "Hg5 mi
3:55 AM46 °FFog.7 mph97%30.12 "Hg5 mi
3:35 AM46 °FFog.3 mph97%30.13 "Hg5 mi
3:15 AM46 °FFog.5 mph97%30.14 "Hg5 mi
2:55 AM46 °FFog.5 mph97%30.14 "Hg5 mi
2:35 AM46 °FFog.5 mph97%30.14 "Hg5 mi
2:15 AM46 °FFog.5 mph97%30.14 "Hg5 mi
Weather by CustomWeather, © 2014

See weather overviewHow to use our weather pages